Vertical_Velocity
15 6 7 4 -1 1 1 -0 0 4 2 -3 -6 -2 1 2 -3 0 2 -1 1 -0 -3 -3 -0 0 -1
-1 -1 -1 4 6 2 -2 3 -2 4 4 6 -4 -3 0 -2 56 29 -11 3 6 -0 -2 1 -5 2 5
0 -7 -1 12 -2 1 0 1 1 9 0 3 -6 -2 4 1 2 -0 2 -0 4 1 2 -2 2 -1 0
9 1 3 8 -5 3 1 -7 -4 9 3 -0 1 -2 2 16 2 2 -3 -0 0 -1 4 -1 -2 -1 -2
8 29 -1 1 -2 11 5 8 6 3 -2 2 4 2 -2 6 6 -0 3 3 -1 -3 -0 1 0 -4 1
4 -1 0 5 5 5 -2 6 -18 6 -4 -4 -4 -8 15 23 18 8 -4 4 2 -3 1 -1 2 -0 1
-0 1 7 13 -0 16 10 6 10 10 -4 3 2 4 5 5 -1 2 4 -3 -4 -4 -2 -2 0 2 -0
1 -1 14 -6 9 5 0 -3 -4 -9 -6 -10 2 2 6 4 2 0 -3 -3 -2 0 1 -2 4 -1 1
-4 4 6 5 14 13 5 3 6 -0 -6 6 -3 5 -2 1 2 -0 -3 -0 -2 1 1 1 1 -2 -1
-3 3 1 1 5 -11 18 0 9 1 0 1 1 -4 -10 -2 2 3 -2 -1 1 0 3 3 0 -1 3
-3 -4 -2 4 2 -11 12 6 -3 -10 18 11 13 17 -6 4 1 1 -1 -1 -2 2 4 3 -0 3 1
-6 -3 -3 0 2 -5 10 -3 1 -1 9 7 8 11 10 0 1 2 -5 3 2 7 2 2 -6 -4 0
-4 -0 2 2 5 1 -4 9 -2 -2 -0 -1 6 16 7 9 7 8 7 -2 -0 4 2 -1 1 -1 -2
-1 2 -1 -1 3 -6 -6 4 10 -0 3 -1 11 2 9 4 16 15 3 13 2 -0 2 5 -0 -4 -0
-2 2 3 3 1 -0 2 -1 -5 -4 1 3 3 5 8 3 6 5 37 16 10 8 -5 28 -1 -2 -1
-4 -5 -0 0 6 2 1 -7 -3 -2 2 -1 7 14 4 6 -6 8 12 1 0 6 -2 7 -5 -0 2
0 -4 -6 -4 -2 3 -3 -10 -2 -2 5 -3 3 -5 -3 -6 4 -2 -4 0 5 -4 4 35 4 1 1
Height
5594 5603 5617 5627 5637 5643 5651 5659 5666 5675 5684 5691 5700 5708 5714 5720 5726 5729 5736 5742 5749 5753 5757 5760 5763 5766 5768
5574 5589 5602 5614 5623 5632 5639 5645 5652 5661 5670 5677 5686 5695 5703 5711 5713 5713 5726 5730 5738 5742 5747 5751 5753 5756 5759
5559 5571 5585 5597 5608 5618 5624 5632 5641 5649 5657 5665 5673 5681 5691 5698 5704 5710 5715 5721 5728 5732 5736 5740 5743 5747 5750
5549 5556 5566 5580 5592 5604 5610 5618 5629 5636 5645 5652 5660 5669 5676 5679 5688 5698 5703 5711 5716 5720 5724 5730 5734 5736 5741
5525 5535 5549 5563 5576 5590 5598 5606 5613 5624 5631 5639 5649 5657 5665 5670 5678 5686 5694 5701 5705 5710 5714 5719 5723 5726 5729
5502 5522 5533 5548 5561 5571 5581 5589 5600 5611 5617 5626 5632 5642 5650 5657 5667 5674 5681 5688 5693 5698 5703 5707 5711 5714 5717
5487 5505 5515 5528 5542 5555 5564 5573 5585 5595 5605 5611 5619 5629 5639 5646 5653 5661 5668 5674 5681 5685 5691 5695 5700 5703 5707
5470 5482 5494 5508 5519 5536 5545 5556 5567 5576 5589 5597 5608 5616 5626 5635 5642 5649 5655 5662 5667 5673 5679 5684 5687 5693 5695
5446 5463 5473 5485 5502 5518 5532 5542 5552 5561 5575 5585 5591 5601 5610 5620 5627 5635 5642 5648 5654 5661 5667 5672 5677 5681 5684
5423 5439 5455 5471 5486 5503 5515 5526 5536 5547 5559 5571 5580 5590 5597 5608 5614 5621 5628 5635 5642 5647 5653 5659 5664 5669 5674
5401 5420 5438 5454 5470 5488 5501 5509 5520 5531 5545 5556 5564 5577 5584 5594 5601 5609 5617 5624 5629 5637 5643 5647 5652 5658 5662
5384 5404 5423 5439 5455 5470 5480 5494 5504 5517 5526 5537 5549 5560 5570 5578 5587 5596 5603 5609 5614 5622 5630 5636 5640 5645 5649
5369 5388 5405 5421 5434 5450 5461 5474 5488 5499 5511 5521 5533 5546 5554 5564 5574 5582 5589 5597 5603 5611 5619 5625 5629 5633 5636
5352 5369 5383 5397 5413 5429 5440 5451 5466 5481 5495 5507 5520 5530 5539 5551 5558 5568 5576 5583 5591 5598 5606 5610 5615 5619 5624
5330 5346 5361 5376 5394 5409 5423 5431 5446 5465 5479 5491 5504 5513 5524 5533 5542 5551 5559 5568 5578 5585 5591 5594 5601 5606 5611
5308 5324 5340 5357 5373 5387 5402 5415 5431 5448 5462 5478 5491 5497 5506 5514 5526 5538 5546 5555 5564 5570 5577 5582 5588 5593 5596
5287 5303 5319 5335 5349 5365 5381 5397 5416 5432 5447 5461 5472 5483 5493 5503 5512 5525 5535 5544 5551 5558 5563 5565 5575 5579 5582